Temperature
23 23 22 23 26 27 28 30 31 31 31 30 30 29 28 28 27 24 24 24 23 22 22 21 21 21 20 20 20 19 19 19 19 19 19 19 19 19 19 18 18 18 18 18 18 18 18 18 18
23 22 23 26 27 27 28 30 30 31 30 30 29 29 28 27 26 24 24 23 23 22 21 21 21 21 20 20 19 19 19 19 19 19 19 19 19 19 19 18 18 18 18 18 18 18 18 18 18
23 23 25 28 28 28 28 30 31 31 30 29 29 28 28 26 25 24 23 23 23 22 21 21 21 20 20 20 19 19 19 19 19 19 19 19 19 18 18 18 18 18 18 18 18 18 18 18 18
23 25 27 29 28 30 30 31 31 30 30 29 29 28 26 25 25 24 23 23 23 21 21 21 21 20 20 20 19 19 19 19 19 19 19 18 18 18 18 18 18 18 18 18 18 18 18 18 18
24 27 28 28 29 31 31 31 31 31 30 29 29 27 25 24 24 23 23 23 23 22 21 21 21 20 20 20 19 19 19 19 19 18 18 18 18 18 18 18 18 18 18 18 18 18 18 18 18
27 29 28 28 30 31 31 31 31 31 30 29 28 27 25 24 24 23 23 23 23 22 21 21 21 20 20 19 19 19 19 19 18 18 18 18 18 18 18 18 18 18 18 18 18 18 18 18 18
27 28 28 29 30 30 31 31 30 30 30 29 28 27 25 24 23 23 23 23 22 21 21 20 20 20 20 19 19 19 19 18 18 18 18 18 18 18 18 18 18 18 18 17 18 18 18 18 18
27 29 29 29 30 30 31 30 30 29 29 28 28 27 24 23 23 23 23 22 22 21 21 20 20 19 19 19 19 19 19 18 18 18 18 18 17 17 17 17 17 17 17 17 17 17 17 17 17
28 28 28 29 30 30 31 30 29 28 28 28 27 26 24 23 23 23 22 22 22 21 20 20 20 19 19 19 19 19 18 18 18 18 17 17 17 17 17 17 17 17 17 17 17 17 17 17 17
29 28 28 30 31 31 30 30 29 29 28 28 26 25 24 23 23 23 22 22 22 21 20 20 20 19 19 19 19 18 18 18 17 17 17 17 17 17 17 17 17 17 17 17 17 17 17 17 17
30 29 30 30 30 30 30 30 29 29 28 28 26 25 24 23 23 23 22 22 22 21 20 19 19 19 19 18 18 18 18 18 17 17 17 17 17 17 17 17 17 17 17 17 17 17 17 17 17
30 30 30 30 30 30 30 29 29 28 28 27 26 25 24 24 23 23 22 22 21 20 20 20 19 19 19 18 18 18 18 17 17 17 17 17 17 16 16 16 17 17 17 17 17 17 17 16 17
30 30 30 30 30 30 29 29 29 28 28 27 26 25 25 24 23 23 22 22 21 20 20 19 19 18 18 18 18 17 17 17 17 17 17 17 16 16 16 16 16 16 16 16 16 16 16 16 16
30 31 30 30 30 30 29 29 29 28 28 27 26 25 25 24 24 23 22 21 21 20 20 19 19 18 18 18 18 17 17 17 17 17 17 16 16 16 16 16 16 16 16 16 16 16 16 16 16
30 30 30 30 30 30 30 29 29 28 28 27 26 26 25 24 24 23 22 21 21 20 20 19 18 18 18 18 18 17 17 17 17 17 17 16 16 16 16 16 16 16 16 16 16 16 16 16 16
29 29 28 29 30 30 29 28 29 28 28 27 27 26 25 24 23 23 22 21 21 20 19 19 18 18 18 17 17 17 17 17 17 17 17 16 16 16 16 16 16 16 16 16 16 16 16 16 16
28 28 28 29 30 30 29 28 29 29 28 28 27 26 25 24 24 23 22 21 20 20 19 18 18 18 17 17 17 17 17 17 17 16 16 16 16 16 16 16 16 15 15 15 15 15 15 15 15
27 28 29 29 30 30 29 29 29 29 28 28 27 26 25 25 24 23 22 21 20 19 19 18 18 17 17 17 17 17 16 16 16 16 16 16 16 16 16 15 16 15 15 15 15 15 15 15 15
29 29 29 29 30 30 29 29 29 29 29 28 27 27 26 25 24 23 22 21 20 19 18 18 17 17 17 17 17 16 16 16 16 16 16 16 16 16 16 15 15 15 15 15 15 15 15 15 15
29 29 29 29 30 30 29 29 30 29 29 28 27 27 26 25 23 22 21 21 20 19 18 18 17 17 17 17 17 16 16 16 16 16 16 16 16 15 15 15 15 15 15 15 15 15 15 15 15
29 29 29 29 30 30 30 29 29 29 29 28 27 27 26 25 24 22 21 21 20 19 18 18 17 17 17 16 16 16 16 16 16 15 15 15 15 15 15 15 15 15 15 15 15 15 15 15 15
28 30 29 29 29 28 29 27 28 28 28 28 28 27 26 25 24 23 22 21 20 19 18 18 17 17 16 16 16 16 16 15 15 15 15 15 15 15 15 15 15 15 14 14 14 14 15 14 14
29 30 30 29 28 28 28 27 28 28 27 27 27 27 26 25 24 23 22 21 20 19 18 17 17 16 16 16 16 16 15 15 15 15 15 15 15 15 15 15 15 14 14 14 14 14 14 14 14
30 29 29 29 28 26 27 27 27 28 28 28 27 27 26 25 24 23 22 21 20 19 18 17 17 16 16 16 16 15 15 15 15 15 15 15 15 15 14 14 14 14 14 14 14 14 14 14 14
29 27 26 26 26 26 27 27 27 28 28 28 27 27 26 25 24 23 22 21 20 19 18 17 16 16 16 15 15 15 15 15 15 15 15 15 14 14 14 14 14 14 14 14 14 14 14 14 14
28 28 26 24 25 26 27 27 27 28 28 28 27 26 25 24 23 22 22 21 20 19 18 17 16 16 15 15 15 15 15 15 15 15 15 14 14 14 14 14 14 14 14 14 14 14 14 14 14
27 27 28 26 26 25 26 26 27 27 28 27 27 26 25 24 23 22 21 20 19 19 18 17 16 16 15 15 15 15 15 15 15 15 14 14 14 14 14 14 14 14 14 14 14 13 13 13 14
28 28 26 25 24 24 25 25 26 26 26 27 26 26 24 23 23 22 21 20 19 18 18 17 16 16 16 15 15 15 15 15 14 14 14 14 14 14 14 14 14 14 13 13 13 13 13 13 13
28 27 27 26 25 24 23 24 27 26 26 26 26 25 24 23 22 21 21 20 19 18 18 17 16 16 16 15 15 15 15 15 14 14 14 14 14 14 14 14 14 14 14 13 13 13 13 13 14
28 27 27 25 25 25 24 24 26 26 26 26 25 25 24 23 22 21 20 20 19 18 17 17 16 16 16 15 15 15 15 14 14 14 14 14 14 14 14 14 14 14 14 13 13 13 13 14 14
Wind_Speed
8 11 10 7 6 6 6 2 3 6 7 8 7 7 10 10 8 8 7 10 15 18 16 15 14 13 11 11 11 10 11 10 10 10 10 10 9 9 9 9 9 8 8 8 7 7 7 8 7
10 12 10 7 6 5 4 1 5 8 7 6 7 7 8 10 11 9 8 9 14 17 16 15 15 13 12 12 11 10 10 10 9 9 9 9 9 9 8 8 8 7 7 7 7 7 7 7 6
12 14 8 7 7 4 3 2 5 7 6 5 6 6 6 6 9 7 8 9 13 16 17 16 15 13 12 12 11 10 10 9 9 9 9 9 8 8 8 8 7 7 7 7 7 7 6 6 6
9 8 7 8 8 4 3 1 3 4 5 4 5 6 6 6 6 9 9 9 13 16 17 16 16 14 13 12 11 10 10 9 9 9 8 8 7 7 7 7 7 6 6 6 6 6 6 5 5
10 7 10 10 8 2 2 2 2 3 4 4 5 7 8 8 11 11 9 9 11 14 16 16 16 15 14 12 11 10 10 9 9 8 7 7 6 6 6 7 6 6 6 5 5 5 5 5 4
7 8 9 9 7 2 0 0 0 1 4 4 5 7 7 9 10 9 8 8 11 14 15 15 16 15 13 12 11 10 9 9 8 7 7 6 6 6 6 6 6 6 5 5 4 4 4 4 4
10 10 12 11 7 3 2 0 1 1 1 2 3 5 7 9 9 8 8 9 10 13 13 12 14 13 13 13 11 10 10 9 9 8 7 6 6 6 6 6 6 5 5 5 4 4 4 4 4
11 10 14 11 9 3 2 1 1 2 1 4 3 4 8 10 10 9 8 8 9 9 11 10 12 12 12 12 12 11 11 10 9 9 8 7 6 6 7 6 6 6 5 5 5 5 4 5 5
14 12 12 11 8 2 2 1 2 1 1 3 5 7 11 13 12 11 9 8 7 8 9 9 10 9 9 11 12 12 11 10 9 9 8 7 6 6 6 6 7 7 6 6 6 6 6 6 7
11 11 13 10 6 2 1 1 2 2 3 4 7 10 14 12 12 11 10 9 9 8 8 9 9 8 7 7 9 8 8 9 7 6 6 6 5 4 5 8 8 7 7 7 8 8 8 8 7
12 13 13 10 6 3 2 3 3 4 5 4 8 12 14 12 11 10 10 9 8 8 8 8 7 6 6 5 6 5 5 6 5 5 4 3 2 3 5 5 5 6 7 7 7 8 7 6 4
14 14 13 10 9 5 5 4 4 4 4 4 8 12 14 13 11 10 9 9 8 8 8 8 6 5 5 5 3 3 3 4 3 4 2 2 1 1 2 2 2 3 3 3 3 3 4 3 3
15 14 13 12 11 6 6 7 5 5 4 5 8 10 11 11 11 9 8 8 9 8 7 8 7 6 5 4 2 3 2 3 4 5 3 1 1 1 1 1 1 0 1 1 1 1 1 2 2
14 13 13 13 11 8 8 8 9 9 7 7 9 10 10 10 10 9 8 8 9 8 7 6 7 7 5 4 3 3 3 2 3 4 3 2 2 2 1 1 0 0 1 1 1 1 1 1 1
14 14 14 14 13 12 11 11 12 10 9 9 9 10 9 10 9 9 9 9 8 8 8 6 7 7 5 5 3 3 2 2 3 4 4 2 2 2 1 1 1 0 1 1 1 1 0 2 2
15 15 15 13 14 13 13 12 11 10 10 10 10 10 10 9 9 9 10 9 9 8 7 7 6 6 4 4 3 2 2 2 2 4 4 3 2 2 1 1 1 1 1 1 0 0 0 0 1
14 13 15 14 14 12 12 12 9 10 11 10 10 10 10 10 10 9 10 10 9 8 7 7 6 6 5 4 3 2 2 2 2 3 4 3 2 2 1 1 1 2 2 1 1 1 0 1 1
12 13 13 12 11 13 12 10 11 11 11 10 10 10 10 11 10 10 10 10 9 8 8 7 6 6 5 3 3 2 2 2 2 2 3 4 3 3 2 2 2 2 1 0 0 0 1 1 2
15 14 13 11 10 13 12 11 11 11 12 11 11 11 11 10 11 11 11 11 10 8 8 7 6 6 5 4 4 3 2 2 2 2 3 4 4 3 2 1 1 2 2 2 2 1 2 2 2
15 15 14 10 11 11 12 11 10 11 11 10 11 11 11 11 11 12 12 11 11 10 9 8 7 6 5 4 4 3 3 2 2 2 3 3 4 4 4 2 2 2 2 2 2 2 2 2 2
15 14 13 13 13 12 12 12 10 11 10 10 11 10 11 12 12 12 12 11 11 11 10 8 7 6 5 4 3 3 2 2 2 3 3 3 4 4 3 3 2 2 3 3 3 3 2 2 2
14 14 13 15 13 11 11 10 9 11 11 12 11 11 11 12 12 12 12 12 11 11 10 9 7 6 5 5 4 4 4 3 3 2 2 3 4 4 4 4 3 2 2 3 4 3 2 2 3
14 15 15 15 14 13 13 11 9 11 12 13 11 11 11 11 11 11 11 11 11 10 10 9 8 7 6 5 4 4 3 2 2 2 2 3 3 4 4 4 3 3 3 3 2 2 3 3 3
13 14 15 14 12 14 12 10 8 8 10 11 11 11 10 10 10 10 9 9 10 9 10 9 8 7 6 5 4 4 3 2 2 3 3 3 3 3 4 4 3 3 3 3 3 3 4 3 2
12 11 8 8 8 10 9 9 6 5 7 8 10 12 11 11 11 10 10 9 9 9 9 9 9 7 6 6 4 3 3 4 4 3 3 3 2 3 3 3 3 3 3 3 4 3 4 4 4
11 13 10 8 9 8 9 8 3 3 4 5 7 9 10 10 10 10 9 9 9 9 8 9 9 8 7 6 4 3 2 2 2 2 3 3 3 3 3 4 4 4 4 4 3 3 4 4 4
12 11 10 9 12 11 7 4 3 4 6 7 8 10 10 10 10 10 9 9 8 8 7 8 8 7 7 6 5 4 3 2 2 2 2 2 3 3 4 4 4 4 4 4 4 4 4 3 4
12 10 7 7 8 9 9 8 4 7 7 8 8 9 10 10 10 9 9 9 8 8 7 7 8 7 6 6 5 5 3 3 2 2 2 2 2 2 3 4 4 4 4 4 4 4 4 4 4
11 12 9 8 8 8 8 5 1 5 6 6 8 8 10 10 10 10 9 9 8 8 8 7 7 7 6 6 5 4 4 3 3 2 2 2 2 2 3 4 4 4 5 5 5 5 5 5 5
12 12 12 9 8 8 8 5 1 3 5 6 7 8 9 9 10 10 10 9 8 8 8 7 7 7 7 6 5 4 3 3 3 3 2 2 2 2 2 3 4 4 4 4 5 5 5 5 5
Wind_Direction
232 238 232 242 247 248 268 266 57 59 60 57 46 58 54 46 58 97 110 109 109 114 120 120 120 121 122 121 121 119 116 113 111 109 107 107 106 105 104 102 101 99 100 104 106 110 112 108 105
248 246 240 246 252 259 286 0 68 65 65 76 64 66 74 69 77 104 110 110 114 117 122 122 123 124 125 125 125 123 119 118 116 116 114 113 113 112 111 110 105 101 100 101 105 106 109 109 110
257 257 259 249 251 252 275 16 87 79 70 70 83 66 56 71 85 107 114 124 119 118 118 120 123 124 127 128 126 125 123 121 120 117 114 113 114 118 116 113 110 106 102 103 105 106 108 112 116
253 240 238 257 261 229 196 87 80 96 94 93 101 90 79 69 91 112 125 129 119 118 119 125 126 126 129 129 128 128 130 127 124 121 117 115 115 118 119 118 115 112 108 107 107 108 112 114 121
245 255 245 261 266 261 66 50 77 99 96 84 86 103 95 89 98 111 123 119 115 114 118 128 129 130 129 130 131 129 132 133 131 132 129 126 125 127 128 127 124 120 117 115 115 115 119 121 129
250 256 259 260 258 223 101 251 181 144 119 107 111 116 107 111 110 119 126 124 115 115 120 131 135 135 135 136 135 133 133 137 136 136 137 137 139 143 142 137 133 130 130 129 126 129 134 136 145
256 270 270 268 264 228 199 229 285 257 122 112 99 117 120 118 120 126 131 121 114 118 125 136 139 138 139 137 137 139 141 142 141 141 145 150 154 156 155 152 148 145 145 148 152 157 160 162 166
257 271 275 276 266 232 170 165 129 341 39 98 103 125 134 132 136 139 131 118 112 118 128 141 139 139 143 144 146 146 145 147 150 152 158 163 167 166 165 164 160 155 159 165 169 173 178 183 187
251 259 270 272 270 231 164 166 122 91 126 103 97 102 128 144 148 143 135 127 122 119 132 138 130 138 145 145 147 152 151 156 162 165 173 176 187 178 172 163 161 173 180 186 188 191 197 203 204
240 253 261 273 285 270 184 188 215 212 190 145 121 118 129 145 149 151 147 144 140 134 138 131 131 141 140 132 139 151 150 150 167 152 163 184 192 166 160 154 169 192 202 205 206 210 214 220 208
239 247 262 270 273 269 247 231 245 230 225 174 149 144 145 152 154 155 153 151 146 139 130 125 129 130 123 121 134 135 135 144 154 140 169 176 178 150 144 159 177 201 215 216 202 213 219 218 209
246 247 257 266 266 258 261 249 249 245 225 162 154 153 153 156 156 160 158 151 136 131 134 124 121 119 105 101 114 138 133 139 145 146 160 156 164 149 137 144 180 190 201 218 189 206 205 209 208
250 248 250 250 252 243 248 252 248 244 207 168 162 161 162 161 162 161 157 148 140 138 135 132 135 114 104 100 127 118 119 147 145 142 155 190 154 109 104 83 36 190 164 211 237 248 199 211 212
260 256 253 248 247 242 240 242 239 228 204 189 174 172 175 171 167 163 162 151 147 141 137 134 128 123 125 130 132 138 150 156 138 130 126 117 118 120 107 157 250 301 357 345 280 237 239 214 231
263 261 255 246 239 238 236 237 232 213 203 198 185 180 180 179 171 166 165 155 149 139 132 131 135 129 136 141 160 151 160 158 132 123 127 127 112 132 153 184 189 85 270 269 292 289 171 220 221
262 255 254 245 238 235 238 240 217 199 200 204 196 189 180 176 178 174 165 153 147 143 138 144 149 141 144 148 169 163 153 131 124 132 128 137 142 148 208 187 144 231 254 240 224 253 331 280 283
258 254 252 244 234 231 232 243 211 203 202 205 198 193 183 176 184 177 164 153 151 145 144 151 145 147 153 161 170 159 127 127 131 134 137 145 148 151 195 192 183 224 223 227 235 116 310 273 270
260 255 253 242 231 231 233 236 207 201 204 207 203 195 185 183 181 170 157 152 149 147 149 153 151 146 158 165 163 175 159 153 141 135 137 148 162 177 194 196 187 230 207 175 163 259 257 261 250
258 265 267 253 232 237 237 234 216 203 206 202 204 199 190 186 175 165 160 156 153 152 155 157 163 159 167 171 173 186 182 176 171 156 151 160 177 184 217 213 205 231 184 188 199 208 237 242 240
256 260 265 264 250 246 245 240 221 204 212 207 206 200 187 181 173 166 164 163 163 163 163 164 167 168 180 175 178 190 187 186 182 171 156 179 189 191 206 199 204 190 181 205 210 213 226 231 220
256 257 264 267 258 257 260 249 224 207 201 207 207 200 189 183 178 172 171 170 171 169 167 169 170 171 181 176 184 195 185 194 191 178 179 191 197 198 211 199 210 197 197 192 212 228 225 247 245
260 262 261 261 263 266 264 260 223 199 198 205 201 196 195 191 179 177 173 172 175 172 166 162 163 169 178 180 192 193 193 205 204 194 192 197 193 198 208 207 206 221 220 196 216 200 232 239 254
260 265 263 259 259 265 260 260 242 196 199 200 197 196 193 189 178 169 172 172 171 167 164 162 163 167 172 183 186 194 209 212 196 187 189 199 203 205 206 206 201 217 228 204 205 212 229 240 257
259 268 267 262 256 252 253 259 254 204 200 192 185 191 187 176 167 165 169 165 164 164 163 160 159 163 169 181 192 195 203 203 212 212 205 208 201 206 206 209 203 214 225 212 214 216 230 238 254
248 257 264 262 248 251 248 248 240 187 193 189 184 182 171 166 163 165 167 167 165 166 164 160 161 167 172 183 196 200 210 210 214 214 208 213 214 216 204 209 200 216 217 220 221 212 225 231 235
247 246 247 262 267 272 254 244 219 187 161 151 165 160 157 156 159 164 167 163 164 165 164 163 167 172 175 178 186 197 205 219 214 215 225 211 215 215 203 205 199 211 211 215 206 219 230 217 222
246 249 264 264 274 280 271 251 208 163 145 157 171 165 159 159 159 161 159 156 159 164 166 164 165 173 176 176 184 190 187 208 235 231 224 216 227 217 203 203 208 210 211 210 205 222 229 209 215
232 241 258 259 267 275 272 259 204 163 162 170 162 159 152 155 157 153 152 153 154 159 161 162 167 171 172 177 194 190 185 199 218 219 228 224 220 226 205 203 209 211 208 207 206 223 221 210 215
233 235 246 254 259 264 273 276 168 142 150 152 145 157 156 161 160 153 150 151 153 155 157 159 163 166 170 176 179 177 185 196 205 202 195 201 199 200 206 203 210 212 211 209 210 219 219 219 221
243 235 238 246 252 261 268 262 334 107 118 126 137 151 152 155 157 154 151 151 155 158 157 159 164 173 174 174 172 172 181 187 199 206 195 195 196 205 215 213 214 220 217 211 214 226 227 224 223
Height
1496 1496 1497 1499 1496 1491 1487 1473 1467 1467 1469 1473 1475 1476 1481 1484 1489 1502 1502 1501 1501 1501 1502 1504 1506 1507 1508 1509 1511 1513 1514 1516 1517 1518 1520 1521 1522 1524 1525 1526 1527 1529 1530 1531 1532 1533 1534 1535 1536
1496 1497 1499 1496 1492 1497 1486 1470 1471 1470 1473 1475 1477 1479 1483 1487 1492 1497 1500 1502 1502 1502 1503 1505 1506 1508 1509 1510 1512 1513 1515 1516 1518 1519 1520 1522 1523 1524 1526 1527 1528 1529 1530 1532 1533 1534 1535 1536 1537
1496 1497 1498 1488 1486 1490 1485 1472 1470 1472 1475 1477 1479 1482 1486 1491 1495 1498 1501 1502 1503 1503 1503 1505 1507 1508 1509 1511 1513 1514 1516 1517 1518 1520 1521 1522 1524 1525 1526 1528 1529 1530 1531 1532 1533 1534 1535 1536 1538
1497 1497 1494 1486 1483 1474 1472 1470 1470 1472 1476 1478 1480 1485 1490 1494 1496 1499 1501 1503 1503 1504 1504 1505 1507 1509 1510 1511 1513 1514 1516 1517 1519 1520 1521 1523 1524 1525 1527 1528 1529 1530 1531 1533 1534 1535 1536 1537 1538
1497 1493 1487 1486 1477 1469 1467 1470 1471 1472 1475 1478 1481 1486 1492 1495 1497 1499 1501 1503 1504 1504 1504 1506 1507 1509 1510 1512 1513 1515 1516 1517 1519 1520 1522 1523 1524 1526 1527 1528 1529 1530 1532 1533 1534 1535 1536 1537 1538
1495 1487 1487 1486 1476 1469 1469 1471 1472 1472 1475 1479 1482 1486 1493 1496 1497 1499 1501 1503 1504 1504 1505 1506 1507 1509 1510 1512 1513 1515 1516 1517 1519 1520 1522 1523 1525 1526 1527 1528 1529 1530 1532 1533 1534 1535 1536 1537 1538
1493 1486 1485 1479 1474 1472 1470 1471 1473 1473 1475 1479 1481 1485 1492 1495 1497 1499 1502 1503 1504 1505 1505 1506 1508 1509 1511 1512 1513 1515 1516 1517 1519 1520 1522 1523 1525 1526 1527 1528 1529 1530 1531 1532 1534 1535 1536 1537 1538
1490 1486 1481 1476 1474 1471 1469 1471 1474 1476 1478 1480 1482 1485 1491 1495 1497 1499 1502 1503 1504 1505 1506 1507 1509 1510 1511 1513 1514 1515 1516 1517 1519 1520 1522 1523 1525 1526 1527 1528 1529 1530 1531 1532 1533 1534 1535 1536 1537
1488 1487 1484 1476 1471 1469 1469 1471 1474 1477 1478 1480 1482 1485 1489 1493 1496 1499 1501 1503 1504 1505 1505 1507 1509 1511 1512 1513 1514 1515 1516 1518 1519 1521 1522 1524 1525 1526 1527 1528 1529 1530 1531 1532 1533 1534 1535 1536 1537
1484 1485 1479 1470 1467 1468 1469 1472 1474 1476 1477 1479 1483 1486 1489 1491 1495 1498 1500 1502 1503 1505 1506 1507 1508 1510 1513 1514 1514 1515 1517 1518 1519 1521 1522 1524 1525 1526 1527 1528 1529 1530 1531 1531 1532 1533 1534 1535 1536
1478 1478 1472 1469 1468 1468 1469 1471 1473 1474 1476 1478 1481 1486 1489 1492 1494 1497 1499 1501 1503 1504 1506 1507 1509 1511 1512 1514 1514 1516 1517 1518 1520 1521 1522 1523 1525 1526 1527 1527 1528 1529 1530 1531 1532 1532 1533 1535 1536
1474 1472 1470 1469 1469 1469 1470 1471 1472 1474 1476 1478 1480 1485 1488 1491 1494 1496 1498 1501 1502 1504 1505 1506 1509 1510 1511 1512 1515 1516 1518 1519 1519 1520 1522 1523 1524 1525 1526 1526 1527 1528 1529 1530 1531 1532 1533 1534 1535
1470 1469 1468 1468 1468 1468 1470 1470 1472 1474 1476 1477 1480 1483 1486 1489 1492 1495 1498 1500 1501 1503 1504 1506 1507 1509 1510 1512 1514 1515 1518 1519 1519 1520 1521 1522 1523 1524 1525 1525 1526 1527 1529 1530 1530 1531 1532 1533 1534
1468 1466 1465 1465 1465 1466 1468 1468 1470 1472 1474 1476 1479 1482 1485 1488 1491 1494 1497 1499 1500 1502 1504 1505 1506 1508 1510 1512 1513 1515 1516 1518 1518 1519 1520 1521 1522 1522 1523 1524 1525 1526 1527 1528 1529 1530 1531 1531 1532
1466 1465 1464 1462 1462 1464 1465 1467 1467 1469 1472 1474 1477 1480 1483 1486 1489 1492 1495 1497 1499 1501 1502 1504 1506 1507 1509 1511 1513 1515 1516 1517 1518 1518 1519 1520 1520 1521 1522 1523 1524 1524 1526 1527 1528 1528 1529 1530 1531
1465 1466 1468 1459 1459 1460 1464 1469 1463 1466 1469 1472 1475 1478 1481 1485 1487 1491 1493 1495 1497 1499 1500 1502 1505 1506 1507 1510 1512 1514 1515 1516 1517 1517 1518 1518 1519 1520 1520 1521 1522 1523 1524 1525 1526 1527 1528 1528 1529
1466 1470 1467 1460 1455 1456 1459 1463 1459 1462 1465 1468 1472 1475 1478 1482 1486 1489 1491 1494 1496 1497 1499 1501 1502 1504 1506 1508 1510 1512 1514 1514 1515 1516 1516 1517 1518 1518 1519 1520 1521 1522 1523 1524 1524 1525 1526 1527 1527
1469 1464 1460 1458 1452 1453 1455 1457 1456 1459 1462 1465 1469 1472 1476 1479 1483 1486 1489 1492 1494 1496 1498 1500 1501 1502 1504 1506 1508 1510 1512 1513 1514 1514 1514 1515 1516 1517 1518 1519 1519 1520 1521 1522 1522 1523 1524 1525 1526
1456 1457 1457 1451 1446 1450 1452 1453 1452 1455 1458 1462 1465 1468 1472 1476 1480 1484 1487 1489 1492 1494 1496 1498 1500 1501 1502 1504 1506 1508 1510 1511 1512 1513 1513 1514 1515 1515 1516 1517 1517 1518 1519 1520 1520 1521 1522 1523 1524
1453 1457 1454 1448 1443 1445 1448 1449 1447 1450 1454 1457 1461 1464 1468 1473 1477 1481 1484 1487 1489 1491 1494 1496 1498 1499 1501 1503 1504 1506 1508 1509 1510 1511 1512 1512 1513 1514 1514 1515 1515 1516 1517 1517 1518 1520 1520 1522 1523
1451 1452 1452 1451 1444 1442 1445 1450 1446 1446 1451 1455 1458 1461 1465 1470 1474 1478 1481 1485 1487 1489 1491 1494 1496 1498 1499 1501 1503 1505 1506 1507 1508 1509 1509 1510 1511 1511 1512 1512 1513 1514 1514 1515 1516 1517 1518 1519 1521
1451 1443 1444 1446 1449 1451 1449 1461 1449 1444 1448 1451 1454 1458 1462 1467 1471 1474 1477 1481 1485 1487 1490 1492 1494 1496 1498 1499 1501 1502 1503 1504 1506 1507 1507 1508 1509 1509 1510 1510 1511 1511 1512 1513 1514 1515 1516 1517 1518
1444 1439 1440 1441 1446 1451 1449 1457 1450 1441 1447 1448 1450 1454 1459 1463 1467 1471 1476 1479 1483 1485 1488 1489 1491 1493 1495 1497 1498 1500 1501 1502 1504 1505 1505 1506 1506 1507 1507 1508 1508 1509 1510 1511 1512 1513 1514 1515 1516
1437 1439 1440 1439 1444 1461 1451 1456 1453 1440 1441 1443 1447 1451 1456 1461 1465 1470 1474 1478 1481 1484 1486 1487 1489 1491 1493 1495 1496 1497 1499 1500 1501 1502 1503 1503 1504 1504 1505 1506 1506 1507 1507 1508 1509 1510 1511 1513 1514
1438 1450 1462 1464 1464 1460 1445 1450 1447 1436 1434 1438 1443 1448 1453 1458 1463 1468 1472 1475 1479 1482 1484 1486 1487 1489 1491 1493 1494 1495 1497 1498 1499 1500 1500 1501 1501 1502 1502 1503 1503 1504 1505 1505 1506 1508 1509 1510 1511
1440 1446 1464 1476 1469 1457 1446 1448 1441 1433 1433 1437 1442 1446 1452 1456 1461 1466 1470 1473 1477 1480 1482 1484 1485 1487 1489 1491 1492 1493 1495 1496 1497 1497 1498 1498 1499 1500 1500 1500 1501 1501 1502 1503 1504 1505 1506 1507 1508
1440 1442 1441 1454 1456 1462 1452 1443 1437 1432 1434 1439 1443 1447 1451 1455 1460 1464 1468 1471 1475 1478 1480 1482 1483 1485 1487 1489 1490 1491 1493 1493 1494 1495 1496 1496 1497 1497 1498 1498 1498 1499 1500 1500 1501 1502 1503 1504 1505
1431 1436 1445 1454 1467 1471 1460 1451 1443 1436 1437 1438 1442 1446 1450 1455 1459 1463 1467 1470 1473 1476 1478 1480 1482 1483 1485 1487 1488 1489 1490 1491 1492 1493 1493 1493 1494 1494 1495 1495 1496 1497 1497 1498 1498 1499 1501 1502 1503
1433 1437 1440 1444 1450 1465 1470 1458 1433 1434 1435 1437 1440 1446 1450 1454 1459 1462 1466 1469 1472 1474 1477 1478 1480 1482 1483 1485 1486 1487 1488 1489 1490 1491 1491 1491 1491 1492 1492 1492 1494 1494 1495 1495 1496 1497 1498 1499 1500
1423 1430 1437 1451 1454 1451 1458 1457 1431 1432 1432 1435 1439 1445 1450 1454 1458 1461 1464 1468 1471 1473 1475 1477 1479 1480 1482 1483 1484 1485 1486 1487 1488 1488 1488 1489 1489 1490 1490 1491 1492 1492 1493 1493 1494 1494 1496 1496 1497